Time,TemperatureF,DewpointF,PressureIn,WindDirection,WindDirectionDegrees,WindSpeedMPH,WindSpeedGustMPH,Humidity,HourlyPrecipIn,Conditions,Clouds,dailyrainin,SoftwareType,DateUTC
2013-05-10 00:02:00,50.0,50.0,-100.00,North,0,0.0,-999.0,98,-99.99,,,-99.99,,2013-05-10 05:02:00,
2013-05-10 00:12:00,50.0,49.0,-100.00,North,0,0.0,-999.0,98,-99.99,,,-99.99,,2013-05-10 05:12:00,
2013-05-10 00:22:00,50.0,49.0,-100.00,North,0,0.0,-999.0,98,-99.99,,,-99.99,,2013-05-10 05:22:00,
2013-05-10 00:32:00,49.0,49.0,-100.00,North,0,0.0,-999.0,99,-99.99,,,-99.99,,2013-05-10 05:32:00,
2013-05-10 00:42:00,49.0,49.0,-100.00,North,0,0.0,-999.0,99,-99.99,,,-99.99,,2013-05-10 05:42:00,
2013-05-10 00:52:00,49.0,48.0,-100.00,North,0,0.0,-999.0,98,-99.99,,,-99.99,,2013-05-10 05:52:00,
2013-05-10 01:01:00,49.0,48.0,-100.00,North,-999,0.0,-999.0,97,-99.99,,,-99.99,,2013-05-10 06:01:00,
2013-05-10 01:12:00,49.0,48.0,-100.00,North,0,0.0,-999.0,98,-99.99,,,-99.99,,2013-05-10 06:12:00,
2013-05-10 01:21:00,49.0,49.0,-100.00,North,0,0.0,-999.0,99,-99.99,,,-99.99,,2013-05-10 06:21:00,
2013-05-10 01:32:00,49.0,49.0,-100.00,North,0,0.0,-999.0,98,-99.99,,,-99.99,,2013-05-10 06:32:00,
2013-05-10 01:42:00,49.0,49.0,-100.00,North,0,0.0,-999.0,98,-99.99,,,-99.99,,2013-05-10 06:42:00,
2013-05-10 01:51:00,49.0,49.0,-100.00,North,0,0.0,-999.0,98,-99.99,,,-99.99,,2013-05-10 06:51:00,
2013-05-10 02:02:00,48.0,47.0,-100.00,North,0,0.0,-999.0,98,-99.99,,,-99.99,,2013-05-10 07:02:00,
2013-05-10 02:12:00,47.0,47.0,-100.00,North,0,0.0,-999.0,98,-99.99,,,-99.99,,2013-05-10 07:12:00,
2013-05-10 02:22:00,47.0,47.0,-100.00,North,0,0.0,-999.0,98,-99.99,,,-99.99,,2013-05-10 07:22:00,
2013-05-10 02:31:00,47.0,46.0,-100.00,North,0,0.0,-999.0,98,-99.99,,,-99.99,,2013-05-10 07:31:00,
2013-05-10 02:42:00,47.0,46.0,-100.00,North,0,0.0,-999.0,98,-99.99,,,-99.99,,2013-05-10 07:42:00,
2013-05-10 02:52:00,47.0,46.0,-100.00,North,0,0.0,-999.0,98,-99.99,,,-99.99,,2013-05-10 07:52:00,
2013-05-10 03:02:00,46.0,46.0,-100.00,North,0,0.0,-999.0,98,-99.99,,,-99.99,,2013-05-10 08:02:00,
2013-05-10 03:12:00,46.0,46.0,-100.00,North,0,0.0,-999.0,98,-99.99,,,-99.99,,2013-05-10 08:12:00,
2013-05-10 03:22:00,46.0,45.0,-100.00,North,0,0.0,-999.0,98,-99.99,,,-99.99,,2013-05-10 08:22:00,
2013-05-10 03:32:00,46.0,45.0,-100.00,North,0,0.0,-999.0,98,-99.99,,,-99.99,,2013-05-10 08:32:00,
2013-05-10 03:42:00,45.0,45.0,-100.00,North,0,0.0,-999.0,98,-99.99,,,-99.99,,2013-05-10 08:42:00,
2013-05-10 03:52:00,45.0,45.0,-100.00,North,0,0.0,-999.0,98,-99.99,,,-99.99,,2013-05-10 08:52:00,
2013-05-10 04:01:00,45.0,43.0,-100.00,North,0,0.0,-999.0,93,-99.99,,,-99.99,,2013-05-10 09:01:00,
2013-05-10 04:11:00,45.0,44.0,-100.00,North,0,0.0,-999.0,97,-99.99,,,-99.99,,2013-05-10 09:11:00,
2013-05-10 04:21:00,45.0,44.0,-100.00,North,0,0.0,-999.0,96,-99.99,,,-99.99,,2013-05-10 09:21:00,
2013-05-10 04:32:00,45.0,44.0,-100.00,North,0,0.0,-999.0,97,-99.99,,,-99.99,,2013-05-10 09:32:00,
2013-05-10 04:43:00,45.0,45.0,-100.00,North,0,0.0,-999.0,98,-99.99,,,-99.99,,2013-05-10 09:43:00,
2013-05-10 04:52:00,45.0,44.0,-100.00,North,-999,0.0,-999.0,98,-99.99,,,-99.99,,2013-05-10 09:52:00,
2013-05-10 05:03:00,45.0,44.0,-100.00,North,-999,0.0,-999.0,98,-99.99,,,-99.99,,2013-05-10 10:03:00,
2013-05-10 05:12:00,45.0,44.0,-100.00,North,0,0.0,-999.0,98,-99.99,,,-99.99,,2013-05-10 10:12:00,
2013-05-10 05:23:00,44.0,44.0,-100.00,North,0,0.0,-999.0,98,-99.99,,,-99.99,,2013-05-10 10:23:00,
2013-05-10 05:32:00,44.0,44.0,-100.00,North,0,0.0,-999.0,98,-99.99,,,-99.99,,2013-05-10 10:32:00,
2013-05-10 05:42:00,44.0,44.0,-100.00,North,0,0.0,-999.0,98,-99.99,,,-99.99,,2013-05-10 10:42:00,
2013-05-10 05:52:00,44.0,44.0,-100.00,North,0,0.0,-999.0,98,-99.99,,,-99.99,,2013-05-10 10:52:00,
2013-05-10 06:02:00,44.0,44.0,-100.00,North,0,0.0,-999.0,98,-99.99,,,-99.99,,2013-05-10 11:02:00,
2013-05-10 06:12:00,44.0,43.0,-100.00,North,0,0.0,-999.0,98,-99.99,,,-99.99,,2013-05-10 11:12:00,
2013-05-10 06:22:00,44.0,43.0,-100.00,North,0,0.0,-999.0,98,-99.99,,,-99.99,,2013-05-10 11:22:00,
2013-05-10 06:32:00,43.0,43.0,-100.00,North,0,0.0,-999.0,98,-99.99,,,-99.99,,2013-05-10 11:32:00,
2013-05-10 06:42:00,43.0,42.0,-100.00,North,0,0.0,-999.0,98,-99.99,,,-99.99,,2013-05-10 11:42:00,
2013-05-10 06:51:00,43.0,42.0,-100.00,North,0,0.0,-999.0,98,-99.99,,,-99.99,,2013-05-10 11:51:00,
2013-05-10 07:01:00,42.0,42.0,-100.00,North,0,0.0,-999.0,98,-99.99,,,-99.99,,2013-05-10 12:01:00,
2013-05-10 07:12:00,42.0,42.0,-100.00,North,0,0.0,-999.0,98,-99.99,,,-99.99,,2013-05-10 12:12:00,
2013-05-10 07:21:00,42.0,42.0,-100.00,North,0,0.0,-999.0,98,-99.99,,,-99.99,,2013-05-10 12:21:00,
2013-05-10 07:32:00,42.0,42.0,-100.00,North,0,0.0,-999.0,98,-99.99,,,-99.99,,2013-05-10 12:32:00,
2013-05-10 07:42:00,42.0,42.0,-100.00,North,0,0.0,-999.0,98,-99.99,,,-99.99,,2013-05-10 12:42:00,
2013-05-10 07:51:00,42.0,42.0,-100.00,North,0,0.0,-999.0,98,-99.99,,,-99.99,,2013-05-10 12:51:00,
2013-05-10 08:01:00,42.0,42.0,-100.00,North,0,0.0,-999.0,98,-99.99,,,-99.99,,2013-05-10 13:01:00,
2013-05-10 08:11:00,43.0,42.0,-100.00,North,-999,0.0,-999.0,98,-99.99,,,-99.99,,2013-05-10 13:11:00,
2013-05-10 08:21:00,43.0,42.0,-100.00,North,0,0.0,-999.0,98,-99.99,,,-99.99,,2013-05-10 13:21:00,
2013-05-10 08:32:00,43.0,42.0,-100.00,North,0,0.0,-999.0,98,-99.99,,,-99.99,,2013-05-10 13:32:00,
2013-05-10 08:42:00,43.0,42.0,-100.00,North,0,0.0,-999.0,98,-99.99,,,-99.99,,2013-05-10 13:42:00,
2013-05-10 08:52:00,43.0,42.0,-100.00,North,0,0.0,-999.0,98,-99.99,,,-99.99,,2013-05-10 13:52:00,
2013-05-10 09:02:00,43.0,42.0,-100.00,North,0,0.0,-999.0,98,-99.99,,,-99.99,,2013-05-10 14:02:00,
2013-05-10 09:11:00,43.0,43.0,-100.00,North,0,0.0,-999.0,97,-99.99,,,-99.99,,2013-05-10 14:11:00,
2013-05-10 09:21:00,44.0,42.0,-100.00,North,-999,0.0,-999.0,96,-99.99,,,-99.99,,2013-05-10 14:21:00,
2013-05-10 09:32:00,44.0,43.0,-100.00,North,0,0.0,-999.0,96,-99.99,,,-99.99,,2013-05-10 14:32:00,
2013-05-10 09:42:00,44.0,43.0,-100.00,North,0,0.0,-999.0,97,-99.99,,,-99.99,,2013-05-10 14:42:00,
2013-05-10 09:51:00,44.0,43.0,-100.00,North,0,0.0,-999.0,97,-99.99,,,-99.99,,2013-05-10 14:51:00,
2013-05-10 10:02:00,44.0,43.0,-100.00,North,0,0.0,-999.0,97,-99.99,,,-99.99,,2013-05-10 15:02:00,
2013-05-10 10:20:00,-999.0,-99.9,-100.00,North,-999,0.0,-999.0,79,-99.99,,,-99.99,,2013-05-10 15:20:00,
2013-05-10 10:32:00,46.0,39.0,-100.00,North,0,0.0,-999.0,77,-99.99,,,-99.99,,2013-05-10 15:32:00,
2013-05-10 10:42:00,46.0,39.0,-100.00,North,0,0.0,-999.0,77,-99.99,,,-99.99,,2013-05-10 15:42:00,
2013-05-10 10:53:00,47.0,46.0,-100.00,North,0,0.0,-999.0,94,-99.99,,,-99.99,,2013-05-10 15:53:00,
2013-05-10 11:02:00,48.0,43.0,-100.00,North,0,0.0,-999.0,84,-99.99,,,-99.99,,2013-05-10 16:02:00,
2013-05-10 11:12:00,50.0,47.0,-100.00,North,0,0.0,-999.0,91,-99.99,,,-99.99,,2013-05-10 16:12:00,
2013-05-10 11:23:00,50.0,46.0,-100.00,North,-999,0.0,-999.0,85,-99.99,,,-99.99,,2013-05-10 16:23:00,
2013-05-10 11:32:00,51.0,49.0,-100.00,North,0,0.0,-999.0,92,-99.99,,,-99.99,,2013-05-10 16:32:00,
2013-05-10 11:42:00,52.0,49.0,-100.00,North,0,0.0,-999.0,92,-99.99,,,-99.99,,2013-05-10 16:42:00,
2013-05-10 11:52:00,53.0,51.0,-100.00,North,0,0.0,-999.0,92,-99.99,,,-99.99,,2013-05-10 16:52:00,
2013-05-10 12:02:00,53.0,51.0,-100.00,North,0,0.0,-999.0,92,-99.99,,,-99.99,,2013-05-10 17:02:00,
2013-05-10 12:12:00,54.0,49.0,-100.00,North,0,0.0,-999.0,81,-99.99,,,-99.99,,2013-05-10 17:12:00,
2013-05-10 12:22:00,55.0,46.0,-100.00,North,0,0.0,-999.0,73,-99.99,,,-99.99,,2013-05-10 17:22:00,
2013-05-10 12:32:00,55.0,46.0,-100.00,North,0,0.0,-999.0,73,-99.99,,,-99.99,,2013-05-10 17:32:00,
2013-05-10 12:42:00,56.0,44.0,-100.00,North,0,0.0,-999.0,64,-99.99,,,-99.99,,2013-05-10 17:42:00,
2013-05-10 12:52:00,56.0,45.0,-100.00,North,0,0.0,-999.0,65,-99.99,,,-99.99,,2013-05-10 17:52:00,
2013-05-10 13:10:00,-999.0,-99.9,-100.00,North,0,0.0,-999.0,80,-99.99,,,-99.99,,2013-05-10 18:10:00,
2013-05-10 13:22:00,57.0,51.0,-100.00,North,0,0.0,-999.0,80,-99.99,,,-99.99,,2013-05-10 18:22:00,
2013-05-10 13:34:00,58.0,51.0,-100.00,North,0,0.0,-999.0,78,-99.99,,,-99.99,,2013-05-10 18:34:00,
2013-05-10 13:43:00,59.0,52.0,-100.00,North,0,0.0,-999.0,78,-99.99,,,-99.99,,2013-05-10 18:43:00,
2013-05-10 13:54:00,60.0,53.0,-100.00,North,0,0.0,-999.0,79,-99.99,,,-99.99,,2013-05-10 18:54:00,
2013-05-10 14:02:00,60.0,53.0,-100.00,North,0,0.0,-999.0,79,-99.99,,,-99.99,,2013-05-10 19:02:00,
2013-05-10 14:11:00,60.0,53.0,-100.00,North,0,0.0,-999.0,78,-99.99,,,-99.99,,2013-05-10 19:11:00,
2013-05-10 14:21:00,61.0,51.0,-100.00,North,0,0.0,-999.0,68,-99.99,,,-99.99,,2013-05-10 19:21:00,
2013-05-10 14:32:00,61.0,46.0,-100.00,North,0,0.0,-999.0,58,-99.99,,,-99.99,,2013-05-10 19:32:00,
2013-05-10 14:42:00,61.0,37.0,-100.00,North,0,0.0,-999.0,40,-99.99,,,-99.99,,2013-05-10 19:42:00,
2013-05-10 14:52:00,61.0,39.0,-100.00,North,0,0.0,-999.0,44,-99.99,,,-99.99,,2013-05-10 19:52:00,
2013-05-10 15:01:00,62.0,42.0,-100.00,North,0,0.0,-999.0,48,-99.99,,,-99.99,,2013-05-10 20:01:00,
2013-05-10 15:12:00,62.0,49.0,-100.00,North,0,0.0,-999.0,63,-99.99,,,-99.99,,2013-05-10 20:12:00,
2013-05-10 15:21:00,62.0,48.0,-100.00,North,0,0.0,-999.0,62,-99.99,,,-99.99,,2013-05-10 20:21:00,
2013-05-10 15:32:00,62.0,50.0,-100.00,North,0,0.0,-999.0,64,-99.99,,,-99.99,,2013-05-10 20:32:00,
2013-05-10 15:42:00,62.0,49.0,-100.00,North,0,0.0,-999.0,62,-99.99,,,-99.99,,2013-05-10 20:42:00,
2013-05-10 15:52:00,63.0,49.0,-100.00,North,0,0.0,-999.0,60,-99.99,,,-99.99,,2013-05-10 20:52:00,
2013-05-10 16:02:00,65.0,51.0,-100.00,North,0,0.0,-999.0,60,-99.99,,,-99.99,,2013-05-10 21:02:00,
2013-05-10 16:11:00,63.0,49.0,-100.00,North,0,0.0,-999.0,59,-99.99,,,-99.99,,2013-05-10 21:11:00,
2013-05-10 16:25:00,59.0,43.0,-100.00,North,0,0.0,-999.0,56,-99.99,,,-99.99,,2013-05-10 21:25:00,
2013-05-10 16:32:00,60.0,43.0,-100.00,North,0,0.0,-999.0,54,-99.99,,,-99.99,,2013-05-10 21:32:00,
2013-05-10 16:43:00,60.0,43.0,-100.00,North,0,0.0,-999.0,54,-99.99,,,-99.99,,2013-05-10 21:43:00,
2013-05-10 16:52:00,59.0,42.0,-100.00,North,0,0.0,-999.0,53,-99.99,,,-99.99,,2013-05-10 21:52:00,
2013-05-10 17:02:00,59.0,42.0,-100.00,North,0,0.0,-999.0,53,-99.99,,,-99.99,,2013-05-10 22:02:00,
2013-05-10 17:13:00,60.0,43.0,-100.00,North,0,0.0,-999.0,54,-99.99,,,-99.99,,2013-05-10 22:13:00,
2013-05-10 17:22:00,61.0,43.0,-100.00,North,0,0.0,-999.0,53,-99.99,,,-99.99,,2013-05-10 22:22:00,
2013-05-10 17:32:00,60.0,43.0,-100.00,North,0,0.0,-999.0,53,-99.99,,,-99.99,,2013-05-10 22:32:00,
2013-05-10 17:42:00,61.0,42.0,-100.00,North,0,0.0,-999.0,49,-99.99,,,-99.99,,2013-05-10 22:42:00,
2013-05-10 17:52:00,65.0,46.0,-100.00,North,0,0.0,-999.0,49,-99.99,,,-99.99,,2013-05-10 22:52:00,
2013-05-10 18:02:00,66.0,44.0,-100.00,North,0,0.0,-999.0,44,-99.99,,,-99.99,,2013-05-10 23:02:00,
2013-05-10 18:12:00,66.0,46.0,-100.00,North,0,0.0,-999.0,49,-99.99,,,-99.99,,2013-05-10 23:12:00,
2013-05-10 18:22:00,66.0,47.0,-100.00,North,0,0.0,-999.0,50,-99.99,,,-99.99,,2013-05-10 23:22:00,
2013-05-10 18:33:00,66.0,46.0,-100.00,North,0,0.0,-999.0,49,-99.99,,,-99.99,,2013-05-10 23:33:00,
2013-05-10 18:42:00,65.0,46.0,-100.00,North,0,0.0,-999.0,50,-99.99,,,-99.99,,2013-05-10 23:42:00,
2013-05-10 18:52:00,64.0,45.0,-100.00,North,0,0.0,-999.0,50,-99.99,,,-99.99,,2013-05-10 23:52:00,
2013-05-10 19:02:00,64.0,45.0,-100.00,North,0,0.0,-999.0,50,-99.99,,,-99.99,,2013-05-11 00:02:00,
2013-05-10 19:11:00,64.0,45.0,-100.00,North,0,0.0,-999.0,50,-99.99,,,-99.99,,2013-05-11 00:11:00,
2013-05-10 19:21:00,63.0,43.0,-100.00,North,0,0.0,-999.0,48,-99.99,,,-99.99,,2013-05-11 00:21:00,
2013-05-10 19:32:00,63.0,43.0,-100.00,North,0,0.0,-999.0,48,-99.99,,,-99.99,,2013-05-11 00:32:00,
2013-05-10 19:42:00,63.0,43.0,-100.00,North,0,0.0,-999.0,48,-99.99,,,-99.99,,2013-05-11 00:42:00,
2013-05-10 19:51:00,62.0,42.0,-100.00,North,0,0.0,-999.0,48,-99.99,,,-99.99,,2013-05-11 00:51:00,
2013-05-10 20:01:00,62.0,43.0,-100.00,North,0,0.0,-999.0,49,-99.99,,,-99.99,,2013-05-11 01:01:00,
2013-05-10 20:11:00,62.0,44.0,-100.00,North,0,0.0,-999.0,51,-99.99,,,-99.99,,2013-05-11 01:11:00,
2013-05-10 20:21:00,61.0,43.0,-100.00,North,0,0.0,-999.0,51,-99.99,,,-99.99,,2013-05-11 01:21:00,
2013-05-10 20:32:00,61.0,43.0,-100.00,North,0,0.0,-999.0,52,-99.99,,,-99.99,,2013-05-11 01:32:00,
2013-05-10 20:42:00,60.0,43.0,-100.00,North,0,0.0,-999.0,54,-99.99,,,-99.99,,2013-05-11 01:42:00,
2013-05-10 20:52:00,53.0,38.0,-100.00,North,0,0.0,-999.0,56,-99.99,,,-99.99,,2013-05-11 01:52:00,
2013-05-10 21:02:00,51.0,37.0,-100.00,North,0,0.0,-999.0,59,-99.99,,,-99.99,,2013-05-11 02:02:00,
2013-05-10 21:11:00,44.0,32.0,-100.00,North,0,0.0,-999.0,63,-99.99,,,-99.99,,2013-05-11 02:11:00,
2013-05-10 21:22:00,55.0,47.0,-100.00,North,0,0.0,-999.0,72,-99.99,,,-99.99,,2013-05-11 02:22:00,
2013-05-10 21:32:00,52.0,44.0,-100.00,North,0,0.0,-999.0,75,-99.99,,,-99.99,,2013-05-11 02:32:00,
2013-05-10 21:42:00,27.0,20.0,-100.00,North,0,0.0,-999.0,76,-99.99,,,-99.99,,2013-05-11 02:42:00,
2013-05-10 22:11:00,53.0,50.0,-100.00,North,0,0.0,-999.0,89,-99.99,,,-99.99,,2013-05-11 03:11:00,
2013-05-10 22:21:00,54.0,51.0,-100.00,North,0,0.0,-999.0,89,-99.99,,,-99.99,,2013-05-11 03:21:00,
2013-05-10 22:33:00,54.0,50.0,-100.00,North,0,0.0,-999.0,89,-99.99,,,-99.99,,2013-05-11 03:33:00,
2013-05-10 22:42:00,53.0,51.0,-100.00,North,0,0.0,-999.0,92,-99.99,,,-99.99,,2013-05-11 03:42:00,
2013-05-10 23:12:00,50.0,50.0,-100.00,North,0,0.0,-999.0,98,-99.99,,,-99.99,,2013-05-11 04:12:00,
2013-05-10 23:23:00,49.0,48.0,-100.00,North,0,0.0,-999.0,95,-99.99,,,-99.99,,2013-05-11 04:23:00,
2013-05-10 23:33:00,41.0,40.0,-100.00,North,0,0.0,-999.0,99,-99.99,,,-99.99,,2013-05-11 04:33:00,
2013-05-10 23:52:00,50.0,50.0,-100.00,North,0,0.0,-999.0,99,-99.99,,,-99.99,,2013-05-11 04:52:00,